User: anonymous   Login
Location: Unspecified
(0.0000°N, 0.0000°E)
Time: 08:41:17
(UTC+02:00)
Language:

Cosmos 1782 Rocket - Orbit

View from above orbital plane
View from above orbital plane
View from above satellite
View from above satellite

Ground track
Ground track

The orbit data is extracted from the following two-line orbital elements,

1 16987U 86074B   15089.20868601  .00000692  00000-0  82602-4 0  9999
2 16987 082.5192 348.8687 0019586 051.5734 111.7053 14.82694809538430
Epoch (UTC): 30 March 2015 05:00:30
Eccentricity: 0.0019586
inclination: 82.5192°
perigee height: 607 km
apogee height: 634 km
right ascension of ascending node: 348.8687°
argument of perigee: 51.5734°
revolutions per day: 14.82694809
mean anomaly at epoch: 111.7053°
orbit number at epoch: 53843

The dashed part of the orbit path shows where the satellite is in the earth's shadow,  

DLR